sat.trackr.live / text

‹ back to catalog

STARLINK-36677

NORAD 68178 · 2026-050M

PAYLOAD ACTIVE UNKNOWN

§ Identity

Operator
Country
US
Launch date
2026-03-14
Launch site
AFETR
Launch vehicle
Mass (kg)
RCS (m²)

Purposes: comms

External: N2YO · Heavens-Above · Gunter

§ Orbital elements

Epoch: 2026-05-25T01:18:06.387840Z

Period
93.85 min
Inclination
53.1591°
Eccentricity
0.0001067
Mean motion
15.34377137 rev/d
Perigee alt
462.0 km
Apogee alt
463.5 km
Semi-major
6,840.9 km
B*
9.9513e-4
RAAN
271.4153°
Arg perigee
82.5213°
Mean anomaly
277.5911°
Rev number
1,238

§ Raw data

STARLINK-366771 68178U 26050M   26145.05424060  .00033371  00000+0  99513-3 0  99982 68178  53.1591 271.4153 0001067  82.5213 277.5911 15.34377137 12381

JSON: /api/v1/satellites/68178 · /tle

For live sub-satellite position, see the globe view (requires WebGL).

§ Visibility from observer

Set your observer location to see the next 7 days of passes ≥ 10°. The values pass through the URL so the page stays shareable.

No JS? Fill the form by hand. The geolocation button needs JavaScript.